GW3985 Weather Reports


time (UTC)temp
C
wind
direction
speed
KPH
gust
KPH
rain 1hr
cm
rain 24hr
cm
rain mn
cm
humidity
%
barometer
mb
20260831011515 19 0.0 0.0 0.00 0.05 0.05 75 1025.0
20260831010516 20 0.0 0.0 0.00 0.05 0.05 74 1025.1
20260831005516 20 135 0.0 1.6 0.00 0.05 0.05 70 1025.1
20260831004516 20 135 0.0 1.6 0.00 0.05 0.05 66 1025.3
20260831003637 20 135 0.0 1.6 0.00 0.05 0.05 65 1025.2
20260831002517 20 135 0.0 1.6 0.00 0.05 0.05 65 1025.1
20260831001535 20 136 0.0 4.8 0.00 0.05 0.05 65 1025.3
20260831000515 20 137 0.0 3.2 0.00 0.05 0.05 69 1025.6
20260830235516 19 141 1.6 6.4 0.00 0.05 0.05 69 1025.8
20260830234516 19 137 0.0 4.8 0.00 0.05 0.05 70 1025.9
20260830233517 18 0.0 0.0 0.00 0.05 0.05 72 1025.8
20260830232517 18 110 0.0 1.6 0.00 0.05 0.05 73 1025.8
20260830231514 18 125 0.0 1.6 0.03 0.05 0.05 74 1025.9
20260830230535 18 140 1.6 8.0 0.05 0.13 0.05 75 1026.3
20260830225516 18 132 1.6 4.8 0.05 0.13 0.05 75 1026.5
20260830224516 17 25 0.0 1.6 0.05 0.13 0.05 76 1026.2
20260830223520 17 25 0.0 1.6 0.05 0.13 0.05 76 1026.0
20260830222517 18 0.0 0.0 0.05 0.13 0.05 75 1025.9
20260830221537 18 266 0.0 1.6 0.03 0.10 0.03 71 1025.7
20260830220515 20 75 1.6 6.4 0.00 0.08 0.00 59 1026.1
20260830215515 21 87 1.6 8.0 0.00 0.08 0.00 52 1025.9
20260830214515 22 71 3.2 12.9 0.00 0.08 0.00 50 1025.3
20260830213536 22 78 3.2 12.9 0.00 0.08 0.00 47 1025.2
20260830212516 23 46 3.2 12.9 0.00 0.08 0.00 45 1024.9
20260830211516 26 14 6.4 19.3 0.00 0.08 0.00 43 1024.6
20260830210517 27 0.0 0.0 0.00 0.08 0.00 40 1023.9
20260830205515 27 0.0 0.0 0.00 0.08 0.00 39 1023.5
20260830204515 27 141 0.0 3.2 0.00 0.08 0.00 38 1023.3
20260830203535 27 144 0.0 3.2 0.00 0.08 0.00 39 1023.4
20260830202516 27 139 0.0 3.2 0.00 0.08 0.00 39 1023.4
20260830201516 27 140 0.0 3.2 0.00 0.08 0.00 38 1023.4
20260830200518 27 143 0.0 3.2 0.00 0.08 0.00 39 1023.3
20260830195517 27 0.0 0.0 0.00 0.08 0.00 39 1023.3
20260830194515 26 138 0.0 3.2 0.00 0.08 0.00 42 1023.3
20260830193515 26 147 0.0 1.6 0.00 0.08 0.00 43 1023.6
20260830192536 26 147 0.0 3.2 0.00 0.08 0.00 43 1023.7
20260830191516 26 0.0 0.0 0.00 0.08 0.00 46 1023.7
20260830190516 25 133 0.0 1.6 0.00 0.08 0.00 47 1023.8
20260830185517 25 124 0.0 3.2 0.00 0.08 0.00 46 1023.9
20260830184515 25 125 0.0 3.2 0.00 0.08 0.00 47 1024.0
20260830183515 25 141 0.0 3.2 0.00 0.08 0.00 47 1024.1
20260830182515 25 0.0 0.0 0.00 0.08 0.00 47 1024.3
20260830181516 25 260 0.0 1.6 0.00 0.08 0.00 46 1024.3
20260830180516 24 0.0 0.0 0.00 0.08 0.00 47 1024.5
20260830175536 24 0.0 0.0 0.00 0.08 0.00 49 1024.7
20260830174517 23 0.0 0.0 0.00 0.08 0.00 50 1024.9
20260830173515 23 0.0 0.0 0.00 0.08 0.00 50 1024.9
20260830172515 23 254 0.0 1.6 0.00 0.08 0.00 51 1025.1
20260830171556 23 0.0 0.0 0.00 0.08 0.00 53 1025.2
20260830170536 22 335 0.0 1.6 0.00 0.08 0.00 54 1025.2
20260830165516 22 350 0.0 1.6 0.00 0.08 0.00 55 1025.3
20260830164517 21 350 0.0 1.6 0.00 0.08 0.00 57 1025.4
20260830163517 21 350 0.0 1.6 0.00 0.08 0.00 59 1025.5
20260830162515 21 350 0.0 1.6 0.00 0.08 0.00 60 1025.4
20260830161515 20 0.0 0.0 0.00 0.08 0.00 61 1025.4
20260830160515 20 258 0.0 1.6 0.00 0.08 0.00 59 1025.3
20260830155516 20 0.0 0.0 0.00 0.08 0.00 59 1025.3
20260830154517 20 252 0.0 3.2 0.00 0.08 0.00 61 1025.1
20260830153517 20 270 0.0 1.6 0.00 0.08 0.00 62 1025.0
20260830152537 19 231 0.0 1.6 0.00 0.08 0.00 63 1024.8
20260830151535 19 0.0 0.0 0.00 0.08 0.00 66 1024.8
20260830150515 19 0.0 0.0 0.00 0.08 0.00 66 1024.8
20260830145556 18 0.0 0.0 0.00 0.08 0.00 67 1024.9
20260830144516 18 0.0 0.0 0.00 0.08 0.00 68 1025.0
20260830143536 18 0.0 0.0 0.00 0.08 0.00 68 1025.0
20260830142517 17 279 0.0 1.6 0.00 0.08 0.00 68 1024.9
20260830141514 17 276 0.0 1.6 0.00 0.08 0.00 69 1024.8
20260830140515 16 0.0 0.0 0.00 0.08 0.00 69 1024.7
20260830135515 16 0.0 0.0 0.00 0.08 0.00 71 1024.8
20260830134536 16 0.0 0.0 0.00 0.08 0.00 71 1024.6
20260830133516 16 0.0 0.0 0.00 0.08 0.00 71 1024.7
20260830132517 16 0.0 0.0 0.00 0.08 0.00 69 1024.7
20260830131517 17 293 0.0 1.6 0.00 0.08 0.00 68 1024.6
20260830130514 17 0.0 0.0 0.00 0.08 0.00 66 1024.2
20260830125535 17 0.0 0.0 0.00 0.08 0.00 65 1024.0
20260830124516 17 146 0.0 1.6 0.00 0.08 0.00 64 1023.9
20260830123536 17 140 1.6 3.2 0.00 0.08 0.00 63 1023.6
20260830122516 18 143 1.6 4.8 0.00 0.08 0.00 62 1023.6
20260830121516 18 145 0.0 1.6 0.00 0.08 0.00 62 1023.5
20260830120517 18 137 0.0 3.2 0.00 0.08 0.00 62 1023.5
20260830115535 18 140 3.2 6.4 0.00 0.08 0.00 62 1023.3
20260830114535 18 142 3.2 9.7 0.00 0.08 0.00 62 1023.2
20260830113515 17 147 4.8 11.3 0.00 0.08 0.00 63 1023.1
20260830112517 17 145 3.2 11.3 0.00 0.08 0.00 64 1023.3
20260830111516 17 145 3.2 6.4 0.00 0.08 0.00 65 1023.4
20260830110537 16 142 3.2 8.0 0.00 0.08 0.00 69 1023.5
20260830105517 15 143 0.0 3.2 0.00 0.08 0.00 76 1023.6
20260830104515 15 0.0 0.0 0.00 0.08 0.00 77 1023.6
20260830103515 15 0.0 0.0 0.00 0.08 0.00 76 1023.5
20260830102516 15 0.0 0.0 0.00 0.08 0.00 75 1023.4
20260830101516 15 0.0 0.0 0.00 0.08 0.00 73 1023.5
20260830100516 16 0.0 0.0 0.00 0.08 0.00 72 1023.5
20260830095517 16 0.0 0.0 0.00 0.08 0.00 72 1023.4
20260830094514 16 0.0 0.0 0.00 0.08 0.00 72 1023.4
20260830093515 16 0.0 0.0 0.00 0.08 0.00 71 1023.5
20260830092535 16 0.0 0.0 0.00 0.08 0.00 71 1023.3
20260830091516 16 0.0 0.0 0.00 0.08 0.00 71 1023.4
20260830090516 16 0.0 0.0 0.00 0.08 0.00 70 1023.4
20260830085519 17 0.0 0.0 0.00 0.08 0.00 69 1023.5
20260830084517 16 143 0.0 1.6 0.00 0.08 0.00 69 1023.5
20260830083515 16 143 0.0 1.6 0.00 0.08 0.00 69 1023.5
20260830082515 16 143 0.0 3.2 0.00 0.08 0.00 69 1023.5
20260830081515 16 143 0.0 1.6 0.00 0.08 0.00 69 1023.5
20260830080536 16 143 0.0 1.6 0.00 0.08 0.00 69 1023.5
20260830075516 17 144 0.0 3.2 0.00 0.08 0.00 69 1023.7
20260830074537 17 144 1.6 3.2 0.00 0.08 0.00 68 1023.8
20260830073517 17 144 1.6 4.8 0.00 0.08 0.00 68 1023.7
20260830072515 17 144 3.2 6.4 0.00 0.08 0.00 69 1023.9
20260830071515 17 138 1.6 3.2 0.00 0.08 0.00 69 1024.1
20260830070515 16 139 1.6 6.4 0.00 0.08 0.00 69 1024.3
20260830065516 16 146 1.6 3.2 0.00 0.08 0.00 69 1024.4
20260830064516 16 144 1.6 4.8 0.00 0.08 0.00 70 1024.6
20260830063517 16 144 1.6 4.8 0.00 0.08 0.00 70 1024.6
20260830062517 16 143 1.6 4.8 0.00 0.08 0.00 71 1024.8
20260830061515 16 141 1.6 4.8 0.00 0.08 0.00 72 1025.0
20260830060516 16 141 0.0 1.6 0.00 0.08 0.00 72 1025.0
20260830055515 16 149 0.0 1.6 0.00 0.08 0.08 73 1025.2
20260830054516 16 0.0 0.0 0.00 0.08 0.08 72 1025.3
20260830053517 16 0.0 0.0 0.00 0.08 0.08 72 1025.3
20260830052517 16 0.0 0.0 0.00 0.08 0.08 72 1025.5
20260830051517 16 0.0 0.0 0.00 0.08 0.08 71 1025.6
20260830050515 17 0.0 0.0 0.00 0.08 0.08 69 1025.3
20260830045515 17 135 0.0 1.6 0.00 0.08 0.08 70 1025.4
20260830044516 17 132 0.0 1.6 0.00 0.08 0.08 70 1025.6
20260830043516 17 132 0.0 1.6 0.00 0.08 0.08 69 1025.8
20260830042516 17 278 0.0 1.6 0.00 0.08 0.08 69 1025.9
20260830041537 17 302 0.0 1.6 0.00 0.08 0.08 69 1025.9
20260830040515 17 94 0.0 1.6 0.00 0.08 0.08 69 1025.8
20260830035515 17 89 0.0 3.2 0.00 0.08 0.08 68 1025.7
20260830034555 17 100 0.0 3.2 0.00 0.08 0.08 67 1025.7
20260830033516 18 109 0.0 3.2 0.00 0.08 0.08 66 1025.6
20260830032516 18 96 0.0 1.6 0.00 0.08 0.08 66 1025.3
20260830031517 19 96 0.0 1.6 0.00 0.08 0.08 64 1025.6
20260830030517 20 201 0.0 4.8 0.00 0.08 0.08 63 1025.4
20260830025516 20 30 1.6 8.0 0.00 0.08 0.08 61 1025.4
20260830024515 21 141 0.0 1.6 0.00 0.08 0.08 61 1024.6
20260830023515 21 143 0.0 1.6 0.00 0.08 0.08 60 1024.4
20260830022516 21 144 0.0 1.6 0.00 0.08 0.08 60 1024.1
20260830021516 22 144 1.6 3.2 0.00 0.08 0.08 59 1024.1
20260830020517 22 144 1.6 1.6 0.00 0.08 0.08 56 1023.9
20260830015537 21 116 0.0 1.6 0.00 0.08 0.08 58 1023.9
20260830014515 21 116 0.0 1.6 0.00 0.08 0.08 59 1024.0
20260830013515 21 0.0 0.0 0.00 0.08 0.08 62 1023.7
20260830012515 21 0.0 0.0 0.00 0.08 0.08 65 1023.7